BEIDOU 12

Last updated on May 14, 2019, 3:06 a.m. UTC

1 38250U 12018A   19133.77127899 -.00000097  00000-0  10000-3 0  9998
2 38250  56.6158  30.9451 0021020 240.8931  58.2424  1.86233134 48025
UTC
Height (km)
Latitude
Longitude
Inclination
Orbital Period
UTC large
Height (km)
Speed (km/s)
/
Latitude / Longitude
Inclination (degrees)
Orbital Period (minutes)
Azimuth
Elevation
Range (km)
Doppler Factor
iOS Compass Heading
iOS Angle

Next 30 passes for location: Hong Kong

Rise time Rise Azimuth (degrees) Set time Set Azimuth (degrees) Duration Max altitude (degrees)

No matching passes for this satellites